User: anonymous   Login
Location: Lombard
(41.8800°N, 88.0080°W)
Time: 17:56:54
(UTC-06:00)
Language:

BEESAT - Orbit

View from above orbital plane
View from above orbital plane
View from above satellite
View from above satellite

Ground track
Ground track

The orbit data is extracted from the following two-line orbital elements,

1 35933U 09051C   22342.35525826  .00000857  00000-0  20103-3 0  9996
2 35933  98.5374 204.4662 0004640 242.4136 117.6591 14.57099967701499
Epoch (UTC): 08 December 2022 08:31:34
Eccentricity: 0.0004640
inclination: 98.5374°
perigee height: 699 km
apogee height: 706 km
right ascension of ascending node: 204.4662°
argument of perigee: 242.4136°
revolutions per day: 14.57099967
mean anomaly at epoch: 117.6591°
orbit number at epoch: 70149

The dashed part of the orbit path shows where the satellite is in the earth's shadow,  

DLR